User: anonymous   Login
Location: Newark
(47.3150°N, 5.1150°E)
Time: 21:58:37
(UTC+00:00)
Language:

RS-15 - Orbit

View from above orbital plane
View from above orbital plane
View from above satellite
View from above satellite

Ground track
Ground track

The orbit data is extracted from the following two-line orbital elements,

1 23439U 94085A   19347.87249516 -.00000040  00000-0  73875-4 0  9992
2 23439  64.8130 187.9823 0145875  78.3164 283.4088 11.27569326 28142
Epoch (UTC): 13 December 2019 20:56:23
Eccentricity: 0.0145875
inclination: 64.8130°
perigee height: 1900 km
apogee height: 2145 km
right ascension of ascending node: 187.9823°
argument of perigee: 78.3164°
revolutions per day: 11.27569326
mean anomaly at epoch: 283.4088°
orbit number at epoch: 2814

The dashed part of the orbit path shows where the satellite is in the earth's shadow,  

DLR